EW1689 Weather Reports


Display with metric or nautical units.
time (UTC)temp
F
wind
direction
speed
MPH
gust
MPH
rain 1hr
in
rain 24hr
in
rain mn
in
humidity
%
barometer
mb
20260510212016 104 180 1.0 7.0 0.00 0.00 0.00 8 1010.8
20260510211038 104 180 2.0 6.0 0.00 0.00 0.00 8 1011.0
20260510210016 105 203 2.0 5.0 0.00 0.00 0.00 8 1011.2
20260510205017 104 203 1.0 3.0 0.00 0.00 0.00 8 1011.3
20260510204036 103 203 1.0 4.0 0.00 0.00 0.00 9 1011.4
20260510203016 102 270 2.0 5.0 0.00 0.00 0.00 9 1011.5
20260510202036 101 203 3.0 10.0 0.00 0.00 0.00 8 1011.5
20260510201016 100 180 3.0 7.0 0.00 0.00 0.00 9 1011.6
20260510200016 100 135 3.0 7.0 0.00 0.00 0.00 8 1011.6
20260510195016 100 180 2.0 4.0 0.00 0.00 0.00 9 1011.7
20260510194016 100 225 1.0 5.0 0.00 0.00 0.00 8 1011.8
20260510193016 99 158 4.0 6.0 0.00 0.00 0.00 8 1011.8
20260510192016 99 90 2.0 6.0 0.00 0.00 0.00 8 1011.8
20260510191036 99 158 2.0 6.0 0.00 0.00 0.00 9 1012.0
20260510190015 99 90 2.0 5.0 0.00 0.00 0.00 9 1012.2
20260510185015 98 68 2.0 5.0 0.00 0.00 0.00 9 1012.1
20260510184016 99 68 1.0 2.0 0.00 0.00 0.00 9 1012.4
20260510183015 98 113 1.0 3.0 0.00 0.00 0.00 9 1012.5
20260510182035 98 90 1.0 3.0 0.00 0.00 0.00 9 1012.6
20260510181015 98 90 1.0 3.0 0.00 0.00 0.00 10 1012.7
20260510180015 97 68 1.0 3.0 0.00 0.00 0.00 10 1012.7
20260510175016 97 0.0 2.0 0.00 0.00 0.00 10 1012.6
20260510174016 96 68 1.0 5.0 0.00 0.00 0.00 10 1012.7
20260510173015 95 113 1.0 2.0 0.00 0.00 0.00 11 1012.6
20260510172015 95 90 1.0 3.0 0.00 0.00 0.00 10 1012.4
20260510171015 94 90 1.0 4.0 0.00 0.00 0.00 10 1012.5
20260510170019 94 68 1.0 4.0 0.00 0.00 0.00 10 1012.4
20260510165017 93 68 1.0 5.0 0.00 0.00 0.00 11 1012.4
20260510164017 92 90 2.0 6.0 0.00 0.00 0.00 10 1012.3
20260510163017 92 45 2.0 4.0 0.00 0.00 0.00 10 1012.2
20260510162018 91 45 2.0 5.0 0.00 0.00 0.00 10 1012.2
20260510161017 90 45 2.0 4.0 0.00 0.00 0.00 11 1012.1
20260510160017 90 45 1.0 3.0 0.00 0.00 0.00 11 1012.1
20260510155017 89 0 1.0 1.0 0.00 0.00 0.00 11 1012.0
20260510154018 88 0 1.0 4.0 0.00 0.00 0.00 12 1011.9
20260510153019 88 0 1.0 4.0 0.00 0.00 0.00 12 1011.9
20260510152017 87 0 1.0 5.0 0.00 0.00 0.00 13 1012.0
20260510151517 86 0 2.0 7.0 0.00 0.00 0.00 13 1011.9
20260510150517 86 0 1.0 3.0 0.00 0.00 0.00 13 1011.9
20260510145517 85 0 1.0 2.0 0.00 0.00 0.00 13 1011.8
20260510144518 84 0 1.0 1.0 0.00 0.00 0.00 13 1011.6
20260510143517 83 0.0 1.0 0.00 0.00 0.00 14 1011.6
20260510142517 82 0.0 1.0 0.00 0.00 0.00 15 1011.5
20260510141517 81 0 1.0 1.0 0.00 0.00 0.00 15 1011.4
20260510141017 81 0 1.0 3.0 0.00 0.00 0.00 17 1011.5
20260510140017 80 0 1.0 3.0 0.00 0.00 0.00 16 1011.3
20260510135017 80 0 1.0 3.0 0.00 0.00 0.00 16 1011.1
20260510134017 80 0.0 1.0 0.00 0.00 0.00 14 1011.0
20260510133037 79 0.0 1.0 0.00 0.00 0.00 14 1010.8
20260510132017 78 0.0 1.0 0.00 0.00 0.00 15 1010.8
20260510131057 78 0.0 1.0 0.00 0.00 0.00 15 1010.8
20260510130017 78 0.0 1.0 0.00 0.00 0.00 15 1010.5
20260510125017 77 0.0 2.0 0.00 0.00 0.00 15 1010.5
20260510124017 76 0.0 1.0 0.00 0.00 0.00 15 1010.3
20260510123017 76 0.0 1.0 0.00 0.00 0.00 15 1010.4
20260510122017 76 0.0 0.0 0.00 0.00 0.00 15 1010.2
20260510121016 77 0.0 1.0 0.00 0.00 0.00 15 1010.2
20260510120018 78 0.0 2.0 0.00 0.00 0.00 14 1010.3
20260510115037 79 0.0 1.0 0.00 0.00 0.00 13 1010.4
20260510114017 78 0 2.0 5.0 0.00 0.00 0.00 13 1010.2
20260510113016 78 0.0 1.0 0.00 0.00 0.00 14 1010.1
20260510112017 78 0.0 0.0 0.00 0.00 0.00 13 1010.1
20260510111017 78 0.0 2.0 0.00 0.00 0.00 14 1010.2
20260510110016 78 0.0 0.0 0.00 0.00 0.00 14 1010.1
20260510105017 77 0.0 0.0 0.00 0.00 0.00 15 1010.1
20260510104017 78 0.0 2.0 0.00 0.00 0.00 17 1010.2
20260510103017 79 0.0 2.0 0.00 0.00 0.00 16 1010.2
20260510102016 80 0.0 0.0 0.00 0.00 0.00 15 1010.0
20260510101017 80 0 1.0 2.0 0.00 0.00 0.00 15 1009.9
20260510100016 81 0 1.0 2.0 0.00 0.00 0.00 14 1010.0
20260510095016 82 0.0 2.0 0.00 0.00 0.00 13 1010.1
20260510094016 82 0.0 2.0 0.00 0.00 0.00 13 1009.9
20260510093017 82 0.0 2.0 0.00 0.00 0.00 13 1009.7
20260510092016 82 0.0 2.0 0.00 0.00 0.00 12 1009.5
20260510091016 82 0 1.0 2.0 0.00 0.00 0.00 13 1009.6
20260510090016 83 0 1.0 2.0 0.00 0.00 0.00 13 1009.5
20260510085016 83 0.0 2.0 0.00 0.00 0.00 12 1009.5
20260510084016 84 0 1.0 2.0 0.00 0.00 0.00 13 1009.6
20260510083016 84 0.0 0.0 0.00 0.00 0.00 12 1009.5
20260510082016 84 0.0 2.0 0.00 0.00 0.00 12 1009.4
20260510081036 84 0.0 0.0 0.00 0.00 0.00 12 1009.5
20260510080036 84 0 1.0 3.0 0.00 0.00 0.00 13 1009.5
20260510075017 85 0 1.0 2.0 0.00 0.00 0.00 12 1009.5
20260510074017 86 0 1.0 2.0 0.00 0.00 0.00 12 1009.6
20260510073036 87 0.0 2.0 0.00 0.00 0.00 11 1009.6
20260510072016 88 0.0 1.0 0.00 0.00 0.00 11 1009.5
20260510071016 88 0 1.0 2.0 0.00 0.00 0.00 10 1009.5
20260510070016 89 0 1.0 4.0 0.00 0.00 0.00 10 1009.5
20260510065016 89 0 2.0 6.0 0.00 0.00 0.00 10 1009.2
20260510064015 89 0 3.0 7.0 0.00 0.00 0.00 10 1009.1
20260510063017 89 0 3.0 6.0 0.00 0.00 0.00 10 1009.1
20260510062058 89 0 3.0 5.0 0.00 0.00 0.00 10 1009.0
20260510061017 90 0 4.0 11.0 0.00 0.00 0.00 10 1008.9
20260510060017 90 0 3.0 6.0 0.00 0.00 0.00 11 1008.8
20260510055038 90 0 4.0 9.0 0.00 0.00 0.00 10 1008.8
20260510054017 90 0 2.0 6.0 0.00 0.00 0.00 10 1008.8
20260510053037 90 0 4.0 9.0 0.00 0.00 0.00 10 1008.8
20260510052038 90 0 3.0 7.0 0.00 0.00 0.00 10 1008.5
20260510051017 90 0 3.0 8.0 0.00 0.00 0.00 10 1008.5
20260510050017 90 0 3.0 9.0 0.00 0.00 0.00 10 1008.5
20260510045017 90 0 3.0 7.0 0.00 0.00 0.00 10 1008.3
20260510044037 90 0 2.0 5.0 0.00 0.00 0.00 11 1008.4
20260510043017 90 0 2.0 4.0 0.00 0.00 0.00 10 1008.2
20260510042018 90 0 2.0 4.0 0.00 0.00 0.00 10 1008.1
20260510041017 90 0 1.0 7.0 0.00 0.00 0.00 10 1008.1
20260510040017 91 0 2.0 5.0 0.00 0.00 0.00 10 1007.9
20260510035017 91 0 1.0 4.0 0.00 0.00 0.00 10 1007.8
20260510034017 91 0 1.0 4.0 0.00 0.00 0.00 10 1007.5
20260510033017 91 0 2.0 4.0 0.00 0.00 0.00 10 1007.4
20260510032017 91 0 1.0 5.0 0.00 0.00 0.00 10 1007.3
20260510031017 90 0 1.0 5.0 0.00 0.00 0.00 10 1007.1
20260510030017 90 0.0 2.0 0.00 0.00 0.00 11 1007.0
20260510025018 91 0 1.0 4.0 0.00 0.00 0.00 11 1006.7
20260510024017 91 0.0 1.0 0.00 0.00 0.00 11 1006.7
20260510023017 92 0 1.0 4.0 0.00 0.00 0.00 11 1006.7
20260510022038 92 0.0 1.0 0.00 0.00 0.00 11 1006.4
20260510021017 93 0.0 2.0 0.00 0.00 0.00 10 1006.5
20260510020017 93 0 1.0 4.0 0.00 0.00 0.00 10 1006.5
20260510015016 94 0.0 3.0 0.00 0.00 0.00 10 1006.2
20260510014016 95 0 1.0 5.0 0.00 0.00 0.00 10 1006.1
20260510013037 95 0.0 4.0 0.00 0.00 0.00 10 1006.3
20260510012017 96 0 1.0 5.0 0.00 0.00 0.00 10 1006.2
20260510011017 96 0 1.0 2.0 0.00 0.00 0.00 10 1006.3
20260510010016 96 0 1.0 4.0 0.00 0.00 0.00 10 1006.3
20260510005017 97 0 1.0 3.0 0.00 0.00 0.00 10 1006.5
20260510004037 97 0 1.0 3.0 0.00 0.00 0.00 10 1006.5
20260510003017 97 0 1.0 6.0 0.00 0.00 0.00 9 1006.4
20260510002016 98 0 1.0 4.0 0.00 0.00 0.00 10 1006.6
20260510001016 98 0 2.0 8.0 0.00 0.00 0.00 10 1006.6
20260510000036 99 0 2.0 6.0 0.00 0.00 0.00 9 1006.7
20260509235018 100 0 2.0 8.0 0.00 0.00 0.00 9 1006.8
20260509234037 100 248 1.0 3.0 0.00 0.00 0.00 9 1006.8
20260509233036 101 270 2.0 5.0 0.00 0.00 0.00 8 1007.0
20260509232016 102 180 2.0 8.0 0.00 0.00 0.00 9 1007.1
20260509231016 102 203 1.0 6.0 0.00 0.00 0.00 9 1007.3
20260509230016 102 270 1.0 4.0 0.00 0.00 0.00 9 1007.4
20260509225016 102 270 2.0 4.0 0.00 0.00 0.00 9 1007.6
20260509224016 103 248 1.0 4.0 0.00 0.00 0.00 9 1007.7
20260509223017 102 203 1.0 6.0 0.00 0.00 0.00 9 1007.9
20260509222016 103 203 2.0 5.0 0.00 0.00 0.00 9 1007.9
20260509221016 102 203 2.0 7.0 0.00 0.00 0.00 9 1008.2
20260509220016 102 180 2.0 5.0 0.00 0.00 0.00 10 1008.3
20260509215017 102 203 2.0 5.0 0.00 0.00 0.00 10 1008.7
20260509214016 102 270 2.0 6.0 0.00 0.00 0.00 10 1008.8
20260509213016 102 270 2.0 5.0 0.00 0.00 0.00 10 1009.0